Find Starlink 35242

NORAD ID: 65493 Int'l Des: 2025-198 Owner: SPXS Country: US Constellation: starlink operational
LEOCIRCULAR

Aktuelle Ansicht

3D-Globus wird geladen...

Über Starlink 35242

Beschreibung wird geladen...

Nächste Überflüge

Passes for default location (London). Set your location on the main map for personalized predictions.

Höhenverlauf

Loading altitude history...

Zweizeiliger Elementsatz

1 65493U 25198B 26149.58273737 .00036928 00000-0 10993-2 0 9998
2 65493 53.1592 253.9517 0001065 53.8878 306.2223 15.34382805 41021
Epoch: 29. Mai 2026 • Age: 23 hours

Aktueller Status

Höhe 463.0 km
Geschwindigkeit 7.64 km/s
Subsatellitenpunkt 9.20°N, 14.45°W
Startdatum 5. Sept. 2025
Alter 0.7 years
Typ internet

Technische Details

Klassifizierung Payload
Masse 575.00 kg
Trockenmasse 530.00 kg
Gesamtmasse 575.00 kg
Länge 0.30 m
Durchmesser 4.10 m
Spannweite 29.00 m
Form Box + pan
Hersteller SPXS
Bus-Typ Starlink V2MO
Phasenstatus In Orbit
Besitzer/Staat SPXS/US

Most Searched